Weather History for KBWD - September, 2013

Change the Weather History Date:

Thursday, September 26, 2013

  Actual Average (KABI) Record (KABI)
Temperature  
Mean Temperature 78 °F 72 °F  
Max Temperature 89 °F 83 °F 105 °F (1977)
Min Temperature 66 °F 61 °F 39 °F (2000)
Degree Days  
Heating Degree Days 0 1  
Month to date heating degree days 7  
Since 1 July heating degree days 7  
Cooling Degree Days 12 8  
Month to date cooling degree days 298  
Year to date cooling degree days 2243  
Growing Degree Days 28 (Base 50)    
Moisture  
Dew Point 57 °F    
Average Humidity 51    
Maximum Humidity 78    
Minimum Humidity 25    
Precipitation  
Precipitation 0.00 in 0.08 in 1.11 in (1960)
Month to date precipitation 1.96  
Year to date precipitation 18.92  
Sea Level Pressure  
Sea Level Pressure 29.86 in    
Wind  
Wind Speed 8 mph (SSE)    
Max Wind Speed 16 mph    
Max Gust Speed 22 mph    
Visibility 10 miles    
Events      
T = Trace of Precipitation, MM = Missing Value Source: NWS Daily Summary

Daily Weather History Graph

Daily Weather History Graph

Search for Another Location

Airport or City:

Trip Planner

Search our weather history database for the weather conditions in past years. The results will help you decide how hot, cold, wet, or windy it might be!

Date:

Astronomy

Sep. 26, 2013 Rise Set
Actual Time 7:26 AM CDT 7:26 PM CDT
Civil Twilight 7:02 AM CDT 7:51 PM CDT
Nautical Twilight 6:34 AM CDT 8:19 PM CDT
Astronomical Twilight 6:05 AM CDT 8:47 PM CDT
Moon No Moon Rise 2:01 PM CDT (9/26)
Length of Visible Light 12h 48m
Length of Day
12h 00m
Waning Gibbous, 54% of the Moon is Illuminated
Sep 26
Waning Gibbous
Sep 26
Last Quarter
Oct 4
New
Oct 11
First Quarter
Oct 18
Full

Hourly Weather History & Observations

Time (CDT) Temp. Heat Index Dew Point Humidity Pressure Visibility Wind Dir Wind Speed Gust Speed Precip Events Conditions
12:15 AM 77.0 °F - 59.0 °F 54% 29.83 in 10.0 mi SSE 8.1 mph - N/A   Clear
12:35 AM 75.2 °F - 59.0 °F 57% 29.83 in 10.0 mi SE 9.2 mph - N/A   Clear
12:55 AM 75.2 °F - 59.0 °F 57% 29.83 in 10.0 mi SE 8.1 mph - N/A   Clear
1:15 AM 73.4 °F - 59.0 °F 61% 29.82 in 10.0 mi SSE 5.8 mph - N/A   Clear
1:35 AM 73.4 °F - 59.0 °F 61% 29.82 in 10.0 mi SSE 5.8 mph - N/A   Clear
1:55 AM 71.6 °F - 59.0 °F 64% 29.83 in 10.0 mi South 3.5 mph - N/A   Clear
2:15 AM 71.6 °F - 59.0 °F 64% 29.83 in 10.0 mi SSE 5.8 mph - N/A   Clear
2:35 AM 71.6 °F - 59.0 °F 64% 29.83 in 10.0 mi SSE 4.6 mph - N/A   Clear
2:55 AM 69.8 °F - 59.0 °F 68% 29.83 in 10.0 mi SSE 4.6 mph - N/A   Clear
3:15 AM 69.8 °F - 59.0 °F 68% 29.83 in 10.0 mi SSE 4.6 mph - N/A   Clear
3:35 AM 69.8 °F - 59.0 °F 68% 29.83 in 10.0 mi SSE 5.8 mph - N/A   Clear
3:55 AM 69.8 °F - 59.0 °F 68% 29.83 in 10.0 mi SSE 5.8 mph - N/A   Clear
4:15 AM 68.0 °F - 59.0 °F 73% 29.83 in 10.0 mi SSE 5.8 mph - N/A   Clear
4:35 AM 68.0 °F - 59.0 °F 73% 29.83 in 10.0 mi SSE 5.8 mph - N/A   Clear
4:55 AM 68.0 °F - 59.0 °F 73% 29.82 in 10.0 mi SSE 5.8 mph - N/A   Clear
5:15 AM 66.2 °F - 59.0 °F 78% 29.83 in 10.0 mi SSE 5.8 mph - N/A   Clear
5:35 AM 68.0 °F - 59.0 °F 73% 29.83 in 10.0 mi SSE 6.9 mph - N/A   Clear
5:55 AM 66.2 °F - 59.0 °F 78% 29.83 in 10.0 mi SE 8.1 mph - N/A   Clear
6:15 AM 66.2 °F - 59.0 °F 78% 29.84 in 10.0 mi SE 6.9 mph - N/A   Clear
6:35 AM 66.2 °F - 59.0 °F 78% 29.85 in 10.0 mi SE 6.9 mph - N/A   Clear
6:55 AM 66.2 °F - 59.0 °F 78% 29.86 in 10.0 mi SE 5.8 mph - N/A   Clear
7:15 AM 66.2 °F - 59.0 °F 78% 29.86 in 10.0 mi SSE 5.8 mph - N/A   Clear
7:35 AM 66.2 °F - 59.0 °F 78% 29.87 in 10.0 mi SE 5.8 mph - N/A   Clear
7:55 AM 66.2 °F - 59.0 °F 78% 29.88 in 10.0 mi SE 5.8 mph - N/A   Clear
8:15 AM 68.0 °F - 59.0 °F 73% 29.88 in 10.0 mi SE 5.8 mph - N/A   Clear
8:35 AM 71.6 °F - 59.0 °F 64% 29.89 in 10.0 mi SSE 6.9 mph - N/A   Clear
8:55 AM 71.6 °F - 59.0 °F 64% 29.89 in 10.0 mi SSE 6.9 mph - N/A   Clear
9:15 AM 73.4 °F - 59.0 °F 61% 29.90 in 10.0 mi South 10.4 mph - N/A   Clear
9:35 AM 75.2 °F - 59.0 °F 57% 29.91 in 10.0 mi South 5.8 mph - N/A   Clear
9:55 AM 77.0 °F - 57.2 °F 50% 29.91 in 10.0 mi South 10.4 mph - N/A   Clear
10:15 AM 78.8 °F - 55.4 °F 44% 29.92 in 10.0 mi South 10.4 mph 17.3 mph N/A   Clear
10:35 AM 80.6 °F 80.8 °F 57.2 °F 45% 29.92 in 10.0 mi South 13.8 mph 18.4 mph N/A   Clear
10:55 AM 80.6 °F 80.8 °F 57.2 °F 45% 29.92 in 10.0 mi South 12.7 mph - N/A   Clear
11:15 AM 82.4 °F 82.0 °F 57.2 °F 42% 29.92 in 10.0 mi SSW 12.7 mph 17.3 mph N/A   Clear
11:35 AM 84.2 °F 83.5 °F 57.2 °F 40% 29.92 in 10.0 mi South 13.8 mph - N/A   Clear
11:55 AM 84.2 °F 83.5 °F 57.2 °F 40% 29.92 in 10.0 mi South 12.7 mph - N/A   Clear
12:15 PM 86.0 °F 84.9 °F 57.2 °F 37% 29.91 in 10.0 mi South 16.1 mph 19.6 mph N/A   Clear
12:35 PM 86.0 °F 84.9 °F 57.2 °F 37% 29.91 in 10.0 mi South 15.0 mph 19.6 mph N/A   Clear
12:55 PM 86.0 °F 84.9 °F 57.2 °F 37% 29.90 in 10.0 mi SSE 16.1 mph 21.9 mph N/A   Clear
1:15 PM 86.0 °F 84.9 °F 57.2 °F 37% 29.90 in 10.0 mi SSW 13.8 mph 19.6 mph N/A   Clear
1:35 PM 87.8 °F 86.5 °F 57.2 °F 35% 29.89 in 10.0 mi SSE 12.7 mph 20.7 mph N/A   Clear
1:55 PM 87.8 °F 86.5 °F 57.2 °F 35% 29.88 in 10.0 mi South 10.4 mph - N/A   Clear
2:15 PM 87.8 °F 86.5 °F 57.2 °F 35% 29.87 in 10.0 mi South 8.1 mph 18.4 mph N/A   Clear
2:35 PM 87.8 °F 86.5 °F 57.2 °F 35% 29.87 in 10.0 mi South 11.5 mph 16.1 mph N/A   Clear
2:55 PM 89.6 °F 88.1 °F 57.2 °F 33% 29.86 in 10.0 mi South 9.2 mph 18.4 mph N/A   Clear
3:15 PM 89.6 °F 88.1 °F 57.2 °F 33% 29.85 in 10.0 mi SE 12.7 mph 17.3 mph N/A   Clear
3:35 PM 89.6 °F 87.7 °F 55.4 °F 31% 29.85 in 10.0 mi SSE 11.5 mph - N/A   Clear
3:55 PM 89.6 °F 88.1 °F 57.2 °F 33% 29.84 in 10.0 mi South 10.4 mph - N/A   Clear
4:15 PM 89.6 °F 87.7 °F 55.4 °F 31% 29.84 in 10.0 mi SE 9.2 mph - N/A   Clear
4:35 PM 89.6 °F 87.7 °F 55.4 °F 31% 29.84 in 10.0 mi SSE 13.8 mph 19.6 mph N/A   Clear
4:55 PM 89.6 °F 87.7 °F 55.4 °F 31% 29.84 in 10.0 mi SSE 10.4 mph - N/A   Clear
5:15 PM 89.6 °F 87.3 °F 53.6 °F 29% 29.84 in 10.0 mi SSE 11.5 mph 17.3 mph N/A   Clear
5:35 PM 87.8 °F - 50.0 °F 27% 29.84 in 10.0 mi SE 10.4 mph 16.1 mph N/A   Clear
5:55 PM 87.8 °F - 48.2 °F 25% 29.84 in 10.0 mi SSE 12.7 mph 18.4 mph N/A   Clear
6:15 PM 86.0 °F - 48.2 °F 27% 29.84 in 10.0 mi SE 12.7 mph 16.1 mph N/A   Clear
6:35 PM 86.0 °F - 48.2 °F 27% 29.84 in 10.0 mi SSE 11.5 mph - N/A   Clear
6:55 PM 84.2 °F - 48.2 °F 29% 29.84 in 10.0 mi SE 10.4 mph - N/A   Clear
7:15 PM 82.4 °F - 50.0 °F 32% 29.84 in 10.0 mi SE 8.1 mph - N/A   Clear
7:35 PM 80.6 °F - 51.8 °F 37% 29.84 in 10.0 mi SE 5.8 mph - N/A   Clear
7:55 PM 77.0 °F - 51.8 °F 41% 29.84 in 10.0 mi SE 6.9 mph - N/A   Clear
8:15 PM 75.2 °F - 51.8 °F 44% 29.84 in 10.0 mi SE 6.9 mph - N/A   Clear
8:35 PM 73.4 °F - 53.6 °F 50% 29.84 in 10.0 mi ESE 6.9 mph - N/A   Clear
8:55 PM 73.4 °F - 53.6 °F 50% 29.85 in 10.0 mi ESE 8.1 mph - N/A   Clear
9:15 PM 75.2 °F - 53.6 °F 47% 29.86 in 10.0 mi SE 9.2 mph - N/A   Clear
9:35 PM 75.2 °F - 53.6 °F 47% 29.86 in 10.0 mi SE 8.1 mph - N/A   Clear
9:55 PM 75.2 °F - 55.4 °F 50% 29.87 in 10.0 mi SE 6.9 mph - N/A   Clear
10:15 PM 73.4 °F - 55.4 °F 53% 29.87 in 10.0 mi SE 6.9 mph - N/A   Clear
10:35 PM 73.4 °F - 55.4 °F 53% 29.88 in 10.0 mi SE 5.8 mph - N/A   Clear
10:55 PM 71.6 °F - 57.2 °F 60% 29.88 in 10.0 mi SE 5.8 mph - N/A   Clear
11:15 PM 73.4 °F - 57.2 °F 57% 29.88 in 10.0 mi SE 6.9 mph - N/A   Clear
11:35 PM 73.4 °F - 57.2 °F 57% 29.88 in 10.0 mi SE 8.1 mph - N/A   Clear
11:55 PM 73.4 °F - 57.2 °F 57% 29.89 in 10.0 mi SE 8.1 mph - N/A   Clear